This is the latest recevied weather packets stored in our database for station/object CQ0XPG-11. If no packets are shown the sender has not sent any weather packets the latest 10 day(s).
| Time | Temp. | Humidity | Pressure | Rain* | Wind** | Luminosity | Snow |
|---|---|---|---|---|---|---|---|
| 1778097839 | 12.78° C | 100% | 1001.5 hPa | 0 mm | - | - | - |
| 1778097516 | 12.78° C | 100% | 1001.6 hPa | 0 mm | - | - | - |
| 1778096919 | 13.33° C | 99% | 1001.4 hPa | 0 mm | - | - | - |
| 1778096614 | 13.33° C | 96% | 1001.3 hPa | 0 mm | - | - | - |
| 1778096305 | 13.33° C | 94% | 1001.4 hPa | 0 mm | - | - | - |
| 1778095691 | 13.89° C | 89% | 1001.3 hPa | 0 mm | - | - | - |
| 1778095078 | 14.44° C | 81% | 1001.2 hPa | 0 mm | - | - | - |
| 1778094791 | 14.44° C | 76% | 1001.2 hPa | 0 mm | - | - | - |
| 1778094179 | 15° C | 70% | 1001.2 hPa | 0 mm | - | - | - |
| 1778093593 | 15.56° C | 66% | 1001 hPa | 0 mm | - | - | - |
| 1778093266 | 15.56° C | 63% | 1000.9 hPa | 0 mm | - | - | - |
| 1778092982 | 16.11° C | 62% | 1000.9 hPa | 0 mm | - | - | - |
| 1778092369 | 16.11° C | 58% | 1000.9 hPa | 0 mm | - | - | - |
| 1778092049 | 16.11° C | 56% | 1000.9 hPa | 0 mm | - | - | - |
| 1778091765 | 16.67° C | 58% | 1001 hPa | 0 mm | - | - | - |
| 1778091447 | 16.67° C | 56% | 1000.8 hPa | 0 mm | - | - | - |
| 1778091153 | 16.67° C | 54% | 1000.9 hPa | 0 mm | - | - | - |
| 1778090849 | 16.67° C | 55% | 1000.8 hPa | 0 mm | - | - | - |
| 1778090546 | 16.67° C | 54% | 1000.9 hPa | 0 mm | - | - | - |
| 1778090230 | 17.22° C | 54% | 1000.8 hPa | 0 mm | - | - | - |
| 1778089940 | 17.22° C | 53% | 1000.9 hPa | 0 mm | - | - | - |
| 1778089629 | 17.22° C | 53% | 1001 hPa | 0 mm | - | - | - |
| 1778089333 | 17.22° C | 54% | 1001 hPa | 0 mm | - | - | - |
| 1778089047 | 17.22° C | 52% | 1001 hPa | 0 mm | - | - | - |
| 1778088727 | 17.78° C | 51% | 1001.1 hPa | 0 mm | - | - | - |
* Rain since midnight (hover to see other rain measurements)
** Current wind speed in m/s (hover to see current wind gust speed)